Weather in Svapushche

Russia / Tver Oblast     57°15′30″N   32°42′09″E
temp.,
°C
wind,
m/s
gust,
m/s
humid.,
%
clouds,
%
prec.,
mm/h
press.,
hPa
HPBL,
m
1 july, fri
fri100:00+15nne11615 0.0 102011
03:00+14n22620 0.0 102133
06:00+16nnw25645 0.0 1021134
09:00+23nnw36463 0.0 1020691
12:00+26n47380 0.0 10201840
15:00+28ne45305 0.0 10192469
18:00+26e543461 0.0 10201271
21:00+19se39532 0.0 1022299
2 july, sat
sat200:00+13se28680 0.0 1023149
03:00+11s25702 0.0 102489
06:00+13s24670 0.0 1024115
09:00+21s21395 0.0 1024520
12:00+27sse112513 0.0 10231370
15:00+29sw11225 0.0 10211811
18:00+28nw322795 0.0 10201702
21:00+20nnw1156100 0.0 102011
3 july, sun
sun300:00+17wsw1160100 0.0 102011
03:00+17wsw1163100 0.0 102011
06:00+18w1368100 0.0 101974
09:00+25nw234746 0.0 1019616
12:00+29nw333482 0.0 10181985
15:00+30nw3231100 0.0 10172590
18:00+28wnw334299 0.0 10171101
21:00+22wnw226431 0.0 101722
4 july, mon
mon400:00+19se11727 0.0 101815
03:00+18ssw227767 0.1 101720
06:00+19w117798 0.0 101745
09:00+26wnw125495 0.0 1017591
12:00+29w2241100 0.0 10162247
15:00+27wnw3451100 0.0 10161048
18:00+24ese466299 0.1 1015432
21:00+20wsw398471 0.5 1016290
5 july, tue
tue500:00+17ssw119752 1.0 101621
03:00+17sw2697100 1.3 1016142
06:00+18ssw2796100 0.4 1015218
09:00+23wsw366796 0.4 1015865
12:00+26w4549100 0.4 10141882
15:00+25w355167 0.4 1014732
18:00+24wnw3851100 0.0 1014626
21:00+20wnw396735 0.0 1014345